Voltar ao catálogo

THORAD AGENA D DEB

AtivoPO
NORAD 42552·DEBRIS·🇺🇸 United States

Lançado Apr 8, 1970 de Vandenberg Space Force Base

Loading…

Próximas Passagens (próximas 24 horas)

TLE

AtualizadoSource: Space-Track

Época: Sep 11, 2026, 17:55 UTC

1 42552U 70025TJ  26254.74719601  .00000869  00000-0  14306-2 0  9995
2 42552  99.3904 185.3624 0177049  55.3511 306.4170 13.43933146625417

Acompanhe THORAD AGENA D DEB em tempo real com AllMySat

Download on the App Store